Location: Huntsville
(41.2590°N, 111.7678°W)
Time: 19:43:29
(UTC+00:00)

Explorer 7 - Pass Details

Date: 19 June 2021
Orbit: 484 x 676 km, 50.3° (Epoch: 30 July)

Event Time Altitude Azimuth Distance (km) Brightness Sun altitude
Rises 07:52:10 0° 293° (WNW) 3,000 10.8 -25.1°
Reaches altitude 10° 07:54:53 10° 305° (NW) 2,067 10.1 -25.0°
Maximum altitude 07:58:56 27° 4° (N) 1,232 9.3 -24.9°
Drops below altitude 10° 08:02:50 10° 62° (ENE) 1,978 10.1 -24.8°
Sets 08:05:22 0° 75° (ENE) 2,845 10.8 -24.7°
